Starlink 11263

operational
NORAD ID: 60725 Int'l Des: 2024-152 Owner: SPXS Country: US Constellation: starlink
LEOCIRCULAR

Über Starlink 11263

Beschreibung wird geladen...

Live-Position

3D-Globus wird geladen...

Nächste Überflüge

Höhenverlauf

Altitude vs Time

uPlot chart will show altitude changes over time

Zweizeiliger Elementsatz

1 60725U 24152F 25306.47218487 .00006274 00000-0 56605-4 0 9996
2 60725 53.1590 23.4285 0001375 86.5423 273.5752 15.69712367 68858
Epoch: 2. Nov. 2025 • Age: 10 hours

Aktueller Status

Höhe 369.0 km
Geschwindigkeit 7.69 km/s
Subsatellitenpunkt -28.76°S, 138.2°W
Startdatum 28. Aug. 2024
Alter 1.1 years
Typ internet

Technische Details

Klassifizierung Payload
Masse 960.00 kg
Trockenmasse 910.00 kg
Gesamtmasse 960.00 kg
Länge 0.30 m
Durchmesser 4.10 m
Spannweite 29.00 m
Form Box + pan
Hersteller SPXS
Bus-Typ Starlink V2MD
Phasenstatus In Orbit
Besitzer/Staat SPXS/US

Große Konstellationen

Loading constellations...